Showing default

OPS 8464 (TRANSIT 5B-7), 1514

Orbit data source: Space-Track

OPS 8464 (TRANSIT 5B-7), 1514 is a payload satellite owned by USN BuWeps (US) in LEO that was launched on Fri, 13 Aug 1965 UTC via a THOR ABLESTAR launch vehicle from the Air Force Western Test Range (AFWTR). Payload-class satellites include a variety of spacecraft equipped with specific instruments for various scientific and technological missions. These include communications satellites like Starlink; space stations such as the ISS; scientific satellites like the Hubble; Earth observation satellites from companies like Planet Labs, Umbra, and HawkEye 360; GPS; miniature CubeSats for education and research; and military/defense satellites.

Loading next visibility...
Identifier
1514, 1965-065F
Orbit
LEO
Country
Flag of USUS
Related business
Manufacturer
NAFI
Mission
Spacecraft
Bus & Motor
TRANSIT 5, Unknown motor
Mass
~54 kg wet, ~54 kg dry
Launch date (UTC)
1965-08-13 (60 years ago)
Launch vehicle
THOR ABLESTAR
Launch site
Air Force Western Test Range (AFWTR)
Object type
Payload
Rocket body
Debris
Shape & HBR
Unknown
Radar Cross Section
Large (>1 m²)

Expand to show TLE details & history
Last TLE update: 8 hours ago

TLE from 8 hours ago
0 OPS 8464 (TRANSIT 5B-7)
1 01514U 65065F   25300.88055543  .00000141  00000-0  25616-3 0  9990
2 01514  89.9837 228.1238 0072039  94.6709 337.0428 13.35323612930265
Epoch: 2025-10-27T21:07Z
TLE epoch observation values (Epoch: 2025-10-27T21:07:59.989Z)
Latitude
71.45512°
Longitude
-125.30386°
Altitude
1,089.438 km
Speed
7.338 km/s
True Right ascension
15h 12m 41s
True Declination
71° 21' 21"
Sunlit
Object was in daylight at epoch
Visualization orbit readout
Latitude
Unknown
Longitude
Unknown
Altitude
Unknown
Speed
Unknown
Apparent Right ascension
Unknown
Apparent Declination
Unknown
Sunlit
N/A
Visualization observer readout
Local Sidereal Time
00:38:51
Azimuth
Unknown
Elevation
Unknown
Doppler factor
Unknown
Orbital elements
Apogee altitude
1,177.864 km
Perigee altitude
1,069.778 km
Semi-major axis
7,501.958 km
Eccentricity
0.0072
Inclination
89.9837°
RAAN
228.1238°
Arg. of periapsis
94.6709°
True anomaly
336.71813°
Mean anomaly
337.0428°
Eccentric anomaly
336.88073°
Mean motion
3.34027 °/min
Orbital period
107.78 mins
BSTAR
0.00025616
Loading maneuver chart data...
Computing Atmospheric mass density...
Loading historical data...
Loading historical data...
Loading historical data...
Loading historical data...
Loading historical data...
Loading historical data...
Loading historical data...

Documentation

Showing up to 5 results
|